Location: Unspecified
(0.0000°N, 0.0000°E)
Time: 00:03:41
(UTC+00:00)

Envisat - Pass Details

Date: 22 February 2020
Orbit: 764 x 766 km, 98.1° (Epoch: 25 February)

Event Time Altitude Azimuth Distance (km) Brightness Sun altitude
Rises 05:44:14 0° 26° (NNE) 3,214 6.4 -7.2°
Reaches altitude 10° 05:46:40 10° 33° (NNE) 2,291 5.8 -6.6°
Maximum altitude 05:51:22 40° 102° (ESE) 1,116 4.7 -5.5°
Drops below altitude 10° 05:56:06 10° 171° (S) 2,301 5.8 -4.3°
Sets 05:58:31 0° 178° (S) 3,230 6.4 -3.7°
